Content
SEND FEEDBACK

Daily
Averages
Monthly
Summary
United States of America

SOUTH LAKE TAHOE - AIRPORT, CALIFORNIA


Home > North America > United States > California
Elevation: 6250 feet     Latitude: 38 54N     Longitude: 120 00W

WEATHER
 
SELECT A DAY
Number of Records: 178,549;   Date Range: 1/1/95 - 12/16/14
 
SHARE

PRINT THIS DATA

[ ← Previous Day ]
WEATHER ALMANAC - JANUARY 6, 2013
[ Next Day → ]
[ °C ]   °F
Weather ElementAverageHighLow
Temperature29.8 °F33.1 °F (12:53 pm)26.1 °F (1:53 am)
Dewpoint23.2 °F26.6 °F (5:29 am)14 °F (2:53 pm)
Humidity77.2 %93 % (5:49 am)48 % (2:53 pm)
Barometer30.02 in30.14 in (11:53 pm)29.92 in (2:53 am)
Wind Speed2.8 mph10.4 mph (8:53 pm)
Wind Gust18.4 mph (8:53 pm)
Weather ElementAverage
Visibility5.7 mi
Wind DirectionNE (45.1 °)

Weather ElementTotal
Precipitation0.21 in
Heating Degree Days35.4 (Base 65)
Averaged from 37 records on January 6, 2013
WEATHER CONDITIONS BREAKOUT
WIND DIRECTION BREAKOUT
WEATHER BY HOUR - JANUARY 6, 2013
[ °C ]   °F
Local TimeTemperatureDewpointHumidityBarometerVisibilityWind DirectionWind SpeedGust SpeedPrecipitationEventsConditions
1:53 AM26.1 °F19.0 °F75 %29.93 in10.0 miSouth (170°)6.9 mphOvercast
2:53 AM30.0 °F19.0 °F64 %29.92 in10.0 miSSW (210°)3.5 mphOvercast
4:10 AM30.2 °F23.0 °F75 %29.97 in2.5 miSouth (180°)5.8 mph0.00 inSnowLight Snow
4:27 AM28.4 °F24.8 °F86 %29.97 in2.0 miSouth (170°)3.5 mph0.00 inSnowLight Snow
4:40 AM28.4 °F24.8 °F86 %29.97 in1.8 miSSE (160°)3.5 mph0.00 inSnowLight Snow
4:53 AM28.9 °F25.0 °F85 %29.95 in1.8 miSouth (170°)3.5 mph0.00 inSnowLight Snow
5:29 AM30.2 °F26.6 °F86 %29.98 in0.8 miCalm0.01 inSnowLight Snow
5:49 AM28.4 °F26.6 °F93 %29.98 in1.0 miCalm0.03 inSnowLight Snow
5:53 AM28.9 °F26.1 °F89 %29.96 in1.2 miCalm0.03 inSnowLight Snow
6:53 AM30.0 °F26.1 °F85 %29.96 in2.5 miCalm0.01 inSnowLight Snow
7:00 AM30.2 °F26.6 °F86 %29.98 in3.0 miCalm0.00 inSnowLight Snow
7:18 AM28.4 °F26.6 °F93 %29.98 in3.0 miCalm0.00 inSnowLight Snow
7:25 AM28.4 °F26.6 °F93 %29.99 in3.0 miCalm0.00 inSnowLight Snow
7:53 AM28.0 °F25.0 °F88 %30.00 in3.0 miCalm0.00 inSnowLight Snow
8:07 AM28.4 °F24.8 °F86 %29.99 in6.0 miCalm0.00 inOvercast
8:53 AM28.9 °F26.1 °F89 %30.02 in4.0 miCalm0.00 inSnowLight Snow
9:12 AM30.2 °F26.6 °F86 %30.01 in1.8 miNNE (30°)3.5 mph0.00 inSnowLight Snow
9:19 AM30.2 °F26.6 °F86 %30.01 in0.5 miNNE (20°)6.9 mph0.01 inFog-SnowSnow
9:23 AM30.2 °F24.8 °F80 %30.01 in0.2 miNNE (20°)5.8 mph0.01 inSnowHeavy Snow
9:53 AM30.0 °F25.0 °F82 %30.04 in0.2 miNorth (10°)3.5 mph0.04 inSnowHeavy Snow
10:53 AM30.0 °F25.0 °F82 %30.04 in0.2 miNNE (30°)5.8 mph0.05 inSnowHeavy Snow
11:15 AM30.2 °F24.8 °F80 %30.02 in2.0 miNNE (20°)4.6 mph0.01 inSnowLight Snow
11:53 AM32.0 °F24.1 °F73 %30.04 in10.0 miNNE (30°)5.8 mph0.01 inOvercast
12:11 PM32.0 °F23.0 °F69 %30.00 in10.0 miNNE (20°)6.9 mphMostly Cloudy
12:53 PM33.1 °F21.0 °F61 %30.02 in10.0 miNNE (30°)6.9 mphMostly Cloudy
1:53 PM33.1 °F21.9 °F64 %30.01 in10.0 miCalm0.00 inOvercast
2:53 PM32.0 °F14.0 °F48 %30.02 in10.0 miCalmOvercast
3:53 PM32.0 °F16.0 °F52 %30.03 in10.0 miCalmOvercast
4:53 PM30.0 °F19.9 °F66 %30.04 in10.0 miCalmOvercast
5:53 PM28.9 °F21.0 °F72 %30.06 in10.0 miCalmOvercast
7:06 PM30.2 °F21.2 °F69 %30.06 in10.0 miNNE (30°)6.9 mphOvercast
7:29 PM30.2 °F21.2 °F69 %30.06 in10.0 miVariable3.5 mphOvercast
7:53 PM30.9 °F21.9 °F69 %30.08 in10.0 miNorth (360°)6.9 mph16.1 mphOvercast
8:53 PM30.9 °F21.9 °F69 %30.11 in10.0 miNorth (10°)10.4 mph18.4 mphMostly Cloudy
9:53 PM30.0 °F21.9 °F72 %30.13 in10.0 miCalmOvercast
10:53 PM28.9 °F21.0 °F72 %30.12 in10.0 miCalmClear
11:53 PM26.1 °F19.9 °F78 %30.14 in10.0 miCalmClear
Hourly data recorded from KTVL, located miles away from South Lake Tahoe - Airport, California







STORIES FROM OUR PARTNERS